Regional Weather Roundup
Issued by NWS

Home | Current Version | Previous Version | Graphics & Text | Print | Product List | Glossary On
Versions: 1 2 3 4 5 6 7 8 9 10 11 12 13 14 15 16 17 18 19 20 21 22 23 24 25 26 27 28 29 30 31 32 33 34 35 36 37 38 39 40 41 42 43 44 45 46 47 48 49 50
000
ASUS44 KMEG 280700
RWRTN
TENNESSEE HOURLY STATE WEATHER ROUNDUP
NATIONAL WEATHER SERVICE MEMPHIS TN
100 AM CST FRI NOV 28 2014

TNZ002-004-019-021-049-052-054-088>092-280800-
WEST TENNESSEE

CITY           SKY/WX    TMP DP  RH WIND       PRES   REMARKS
MEMPHIS INTL   PTCLDY    32  26  78 S7        30.44F WCI  26
NWS MEMPHIS      N/A     30 N/A N/A MISG        N/A
JACKSON        CLEAR     27  22  81 S3        30.45F
DYERSBURG      PTCLDY    28  16  59 CALM      30.46S
UNION CITY     CLEAR     25  21  86 CALM      30.42F
PARIS          CLEAR     25  21  86 CALM      30.43F
LEXINGTON      CLEAR     21  21 100 CALM      30.44S
SAVANNAH       CLEAR     25  21  86 CALM      30.45F
$$

TNZ008-025-027-028-033-062-065-066-280800-
NORTH MIDDLE TENNESSEE

CITY           SKY/WX    TMP DP  RH WIND       PRES   REMARKS
NASHVILLE      CLEAR     27  21  78 CALM      30.45F
CLARKSVILLE    CLEAR     25  22  88 SE3       30.44F
COOKEVILLE     MOCLDY    28  21  74 NW3       30.40F
CROSSVILLE     CLOUDY    26  15  63 NW6       30.36S WCI  19
$$

TNZ061-075-076-078-094-096-097-280800-
SOUTH MIDDLE TENNESSEE

CITY           SKY/WX    TMP DP  RH WIND       PRES   REMARKS
TULLAHOMA      CLEAR     25  19  80 CALM      30.41F
WINCHESTER     CLEAR     25  19  80 CALM      30.42F
SHELBYVILLE    CLEAR     21  19  93 CALM      30.43F
$$

TNZ017-018-042-046-047-280800-
NORTHEAST TENNESSEE

CITY           SKY/WX    TMP DP  RH WIND       PRES   REMARKS
TRI CITIES     MOCLDY    29  20  69 NW6       30.33S WCI  23
ELIZABETHTON   CLOUDY    27  19  74 SW6       30.32R WCI  20
$$

TNZ012-013-036-069-073-074-280800-
CENTRAL EAST TENNESSEE

CITY           SKY/WX    TMP DP  RH WIND       PRES   REMARKS
KNOXVILLE      CLOUDY    31  23  72 W5        30.39S WCI  26
OAK RIDGE      CLOUDY    31  22  69 CALM      30.41S
GATLINBURG     CLOUDY    28  23  80 CALM      30.37F
$$

TNZ083-085-099-280800-
SOUTHEAST TENNESSEE

CITY           SKY/WX    TMP DP  RH WIND       PRES   REMARKS
CHATTANOOGA    CLOUDY    32  20  61 NW7       30.42F WCI  26
$$

SKY/WX REPORTED AS FAIR MEANS FEW OR NO CLOUDS BELOW
12 THOUSAND FEET.




USA.gov is the U.S. government's official web portal to all federal, state and local government web resources and services.